Owosso, MI

8:09 PM EDT on August 18, 2017 (GMT -0400)
Owosso

Weather History for KRNP - February, 2013

Change the Weather History Date:

Friday, February 15, 2013

  Actual Average (KFNT) Record (KFNT)
Temperature  
Mean Temperature 26 °F -  
Max Temperature 32 °F 31 °F 62 °F (1954)
Min Temperature 20 °F 17 °F -17 °F (2015)
Degree Days  
Heating Degree Days 38    
Moisture  
Dew Point 15 °F    
Average Humidity 60    
Maximum Humidity 76    
Minimum Humidity 45    
Precipitation  
Precipitation 0.00 in - - ()
Sea Level Pressure  
Sea Level Pressure 30.02 in    
Wind  
Wind Speed 11 mph (WNW)    
Max Wind Speed 16 mph    
Max Gust Speed 24 mph    
Visibility 10 miles    
Events Snow    
Averages and records for this station are not official NWS values.
T = Trace of Precipitation, MM = Missing Value Source: NWS Daily Summary

Daily Weather History Graph

Daily Weather History Graph

Search for Another Location

Airport or City:

Trip Planner

Search our weather history database for the weather conditions in past years. The results will help you decide how hot, cold, wet, or windy it might be!

Date:

Astronomy

Feb. 15, 2013 Rise Set
Actual Time 7:33 AM EST 6:08 PM EST
Civil Twilight 7:04 AM EST 6:37 PM EST
Nautical Twilight 6:31 AM EST 7:10 PM EST
Astronomical Twilight 5:58 AM EST 7:43 PM EST
Moon 9:59 AM EST (2/15) No Moon Set
Length of Visible Light 11h 32m
Length of Day
10h 34m
Waxing Crescent, 30% of the Moon is Illuminated
Feb 15
Waxing Crescent
Feb 17
First Quarter
Feb 25
Full
Mar 4
Last Quarter
Mar 11
New

Hourly Weather History & Observations

Time (EST) Temp. Windchill Dew Point Humidity Pressure Visibility Wind Dir Wind Speed Gust Speed Precip Events Conditions
12:15 AM 32.4 °F 23.0 °F 24.8 °F 74% 29.84 in 10.0 mi WNW 12.7 mph - N/A   Overcast
12:35 AM 32.2 °F 21.4 °F 25.3 °F 76% 29.85 in 10.0 mi West 16.1 mph 19.6 mph N/A   Overcast
12:54 AM 31.8 °F 22.3 °F 23.4 °F 71% 29.86 in 10.0 mi WNW 12.7 mph 24.2 mph N/A   Overcast
1:15 AM 31.8 °F 22.3 °F 24.4 °F 74% 29.86 in 10.0 mi WNW 12.7 mph 18.4 mph N/A   Overcast
1:35 AM 31.6 °F 21.6 °F 24.4 °F 75% 29.86 in 10.0 mi West 13.8 mph - N/A   Overcast
1:54 AM 30.7 °F 20.0 °F 22.1 °F 70% 29.87 in 10.0 mi West 15.0 mph - N/A   Mostly Cloudy
2:15 AM 30.2 °F 20.8 °F 22.5 °F 73% 29.88 in 10.0 mi West 11.5 mph 19.6 mph N/A   Mostly Cloudy
2:35 AM 28.4 °F 19.1 °F 20.3 °F 72% 29.88 in 10.0 mi West 10.4 mph 16.1 mph N/A   Scattered Clouds
2:55 AM 28.2 °F 17.7 °F 20.3 °F 72% 29.89 in 10.0 mi WNW 12.7 mph 23.0 mph N/A   Scattered Clouds
3:15 AM 27.3 °F 17.1 °F 19.8 °F 73% 29.90 in 10.0 mi WNW 11.5 mph 18.4 mph N/A   Mostly Cloudy
3:34 AM 26.6 °F 16.2 °F 18.9 °F 73% 29.91 in 10.0 mi WNW 11.5 mph - N/A   Mostly Cloudy
3:55 AM 26.6 °F 16.2 °F 18.5 °F 71% 29.91 in 10.0 mi WNW 11.5 mph 18.4 mph N/A   Overcast
4:15 AM 26.6 °F 15.7 °F 18.3 °F 71% 29.92 in 10.0 mi WNW 12.7 mph 17.3 mph N/A   Mostly Cloudy
4:34 AM 26.6 °F 17.5 °F 18.5 °F 71% 29.93 in 10.0 mi WNW 9.2 mph - N/A   Mostly Cloudy
4:55 AM 26.6 °F 18.2 °F 19.0 °F 73% 29.94 in 10.0 mi West 8.1 mph - N/A   Overcast
5:15 AM 27.1 °F 15.4 °F 19.6 °F 73% 29.94 in 10.0 mi WNW 15.0 mph - N/A   Mostly Cloudy
5:34 AM 25.5 °F 14.9 °F 16.5 °F 69% 29.96 in 10.0 mi WNW 11.5 mph - N/A   Scattered Clouds
5:55 AM 24.8 °F 14.6 °F 15.8 °F 69% 29.97 in 10.0 mi WNW 10.4 mph - N/A   Clear
6:15 AM 24.4 °F 14.9 °F 15.6 °F 69% 29.97 in 10.0 mi West 9.2 mph - N/A   Clear
6:34 AM 24.3 °F 16.3 °F 15.4 °F 69% 29.98 in 10.0 mi West 6.9 mph - N/A   Clear
6:55 AM 24.8 °F 14.6 °F 15.4 °F 68% 29.99 in 10.0 mi West 10.4 mph - N/A   Mostly Cloudy
7:15 AM 25.0 °F 14.8 °F 15.4 °F 67% 29.99 in 10.0 mi WNW 10.4 mph - N/A   Overcast
7:34 AM 24.8 °F 15.3 °F 15.8 °F 69% 30.00 in 10.0 mi West 9.2 mph - N/A   Overcast
7:55 AM 24.4 °F 14.2 °F 15.6 °F 69% 30.01 in 10.0 mi WNW 10.4 mph - N/A   Scattered Clouds
8:15 AM 24.8 °F 15.3 °F 15.8 °F 69% 30.01 in 10.0 mi West 9.2 mph - N/A   Scattered Clouds
8:34 AM 25.5 °F 14.3 °F 15.8 °F 67% 30.02 in 10.0 mi WNW 12.7 mph 19.6 mph N/A   Scattered Clouds
8:55 AM 26.1 °F 15.6 °F 15.8 °F 65% 30.03 in 10.0 mi West 11.5 mph - N/A   Clear
9:15 AM 26.1 °F 14.5 °F 14.7 °F 62% 30.04 in 10.0 mi WNW 13.8 mph - N/A   Scattered Clouds
9:34 AM 25.9 °F 15.3 °F 13.5 °F 59% 30.04 in 10.0 mi WNW 11.5 mph 17.3 mph N/A   Scattered Clouds
9:55 AM 27.0 °F 15.6 °F 14.0 °F 58% 30.04 in 10.0 mi West 13.8 mph 20.7 mph N/A   Scattered Clouds
10:15 AM 26.8 °F 15.4 °F 12.2 °F 54% 30.05 in 10.0 mi WNW 13.8 mph 20.7 mph N/A   Scattered Clouds
10:35 AM 27.9 °F 17.3 °F 10.9 °F 49% 30.05 in 10.0 mi WNW 12.7 mph 18.4 mph N/A   Mostly Cloudy
10:55 AM 27.5 °F 15.9 °F 10.8 °F 49% 30.05 in 10.0 mi WNW 15.0 mph - N/A   Mostly Cloudy
11:14 AM 28.4 °F 20.4 °F 10.6 °F 47% 30.05 in 10.0 mi WNW 8.1 mph 16.1 mph N/A   Mostly Cloudy
11:35 AM 28.2 °F 17.7 °F 10.9 °F 48% 30.05 in 10.0 mi West 12.7 mph 19.6 mph N/A   Overcast
11:55 AM 27.7 °F 16.6 °F 10.6 °F 49% 30.06 in 10.0 mi WNW 13.8 mph 17.3 mph N/A   Overcast
12:14 PM 28.2 °F 17.2 °F 10.8 °F 48% 30.06 in 10.0 mi WNW 13.8 mph 18.4 mph N/A   Overcast
12:55 PM 27.7 °F 18.8 °F 11.3 °F 50% 30.05 in 10.0 mi WNW 9.2 mph - N/A   Overcast
1:14 PM 28.2 °F 18.9 °F 10.9 °F 48% 30.05 in 10.0 mi West 10.4 mph - N/A   Overcast
1:35 PM 27.7 °F 18.2 °F 12.0 °F 52% 30.06 in 10.0 mi WNW 10.4 mph - N/A   Overcast
1:55 PM 27.9 °F 17.3 °F 11.7 °F 51% 30.06 in 10.0 mi West 12.7 mph 17.3 mph N/A   Overcast
2:14 PM 28.0 °F 17.5 °F 12.0 °F 51% 30.05 in 10.0 mi West 12.7 mph - N/A   Overcast
2:35 PM 27.9 °F 17.3 °F 12.6 °F 53% 30.05 in 7.0 mi WNW 12.7 mph - N/A Snow Light Snow
2:54 PM 28.0 °F 20.8 °F 10.6 °F 48% 30.05 in 10.0 mi West 6.9 mph - N/A   Overcast
3:15 PM 28.9 °F 19.2 °F 10.8 °F 47% 30.05 in 10.0 mi West 11.5 mph - N/A   Overcast
3:35 PM 28.8 °F 19.5 °F 9.5 °F 45% 30.06 in 10.0 mi WNW 10.4 mph 16.1 mph N/A   Overcast
3:54 PM 28.8 °F 20.2 °F 11.5 °F 49% 30.06 in 10.0 mi West 9.2 mph - N/A   Overcast
4:15 PM 28.4 °F 18.5 °F 10.9 °F 48% 30.06 in 10.0 mi WNW 11.5 mph - N/A   Overcast
4:35 PM 28.2 °F 18.9 °F 12.9 °F 53% 30.07 in 10.0 mi WNW 10.4 mph - N/A   Overcast
4:54 PM 28.2 °F 20.2 °F 12.7 °F 52% 30.07 in 10.0 mi West 8.1 mph - N/A   Overcast
5:15 PM 28.4 °F 19.7 °F 12.0 °F 50% 30.07 in 10.0 mi West 9.2 mph - N/A   Overcast
5:35 PM 28.2 °F 23.1 °F 12.7 °F 52% 30.07 in 10.0 mi West 4.6 mph - N/A   Overcast
5:54 PM 28.0 °F 20.0 °F 12.2 °F 52% 30.07 in 10.0 mi West 8.1 mph - N/A   Overcast
6:15 PM 27.9 °F 20.6 °F 13.5 °F 55% 30.08 in 10.0 mi West 6.9 mph - N/A   Overcast
6:34 PM 27.5 °F 17.4 °F 14.2 °F 57% 30.08 in 10.0 mi West 11.5 mph - N/A   Overcast
6:55 PM 27.5 °F 19.3 °F 14.2 °F 57% 30.09 in 10.0 mi West 8.1 mph - N/A   Overcast
7:15 PM 27.5 °F 20.2 °F 14.9 °F 59% 30.09 in 10.0 mi West 6.9 mph - N/A   Overcast
7:34 PM 27.1 °F 17.5 °F 14.7 °F 60% 30.09 in 10.0 mi West 10.4 mph - N/A Snow Light Snow
7:55 PM 27.3 °F 19.1 °F 13.8 °F 57% 30.09 in 10.0 mi West 8.1 mph - N/A   Overcast
8:14 PM 27.1 °F 17.5 °F 13.8 °F 57% 30.09 in 10.0 mi West 10.4 mph - N/A   Overcast
8:35 PM 26.2 °F 14.7 °F 15.4 °F 64% 30.10 in 5.0 mi WNW 13.8 mph 19.6 mph N/A Snow Light Snow
8:55 PM 25.7 °F 14.6 °F 12.6 °F 58% 30.10 in 10.0 mi West 12.7 mph 20.7 mph N/A   Overcast
9:14 PM 25.5 °F 14.3 °F 10.9 °F 54% 30.11 in 10.0 mi WNW 12.7 mph 18.4 mph N/A   Overcast
9:35 PM 24.8 °F 13.4 °F 10.2 °F 54% 30.11 in 10.0 mi WNW 12.7 mph 18.4 mph N/A   Overcast
9:54 PM 24.4 °F 14.2 °F 10.8 °F 56% 30.11 in 10.0 mi WNW 10.4 mph 19.6 mph N/A   Overcast
10:15 PM 24.3 °F 16.3 °F 10.8 °F 56% 30.11 in 10.0 mi WNW 6.9 mph 17.3 mph N/A   Overcast
10:35 PM 23.0 °F 13.9 °F 10.9 °F 60% 30.11 in 10.0 mi WNW 8.1 mph - N/A   Scattered Clouds
10:54 PM 22.8 °F 13.6 °F 10.6 °F 59% 30.10 in 10.0 mi WNW 8.1 mph - N/A   Clear
11:15 PM 21.7 °F 15.5 °F 10.6 °F 62% 30.10 in 10.0 mi West 4.6 mph - N/A   Clear
11:35 PM 21.0 °F - 10.9 °F 65% 30.09 in 10.0 mi Calm Calm - N/A   Clear
11:54 PM 20.1 °F 15.2 °F 10.8 °F 67% 30.09 in 10.0 mi West 3.5 mph - N/A   Clear